CAPE
671 710 653 629 607 624 706 713 784 843 880 811 682 821 830 762 696 848 1156 1307 1395 1278 1168 1029 1025 1064 948 899 687 574 502 624 513 196 309 368 159 100 239 262 141 68 60
845 800 713 689 658 693 781 824 915 962 1018 921 817 940 967 888 820 998 1295 1294 1402 1423 1370 1190 1340 1261 1164 878 687 660 494 221 8 14 311 279 325 414 171 86 144 146 137
850 847 818 746 738 812 908 968 1036 1145 1173 1043 950 1056 1086 1025 973 1124 1295 1330 1569 1477 1353 1349 1376 1406 1066 740 621 585 397 37 0 268 153 13 123 273 170 26 129 107 55
1066 1027 925 835 825 882 995 1114 1184 1314 1343 1197 1080 1118 1199 1176 1140 1282 1381 1368 1390 1486 1435 1515 1437 1163 907 667 569 453 169 24 0 248 147 126 24 253 156 213 228 68 34
1300 1141 1011 864 834 847 972 1216 1341 1449 1461 1375 1257 1239 1256 1230 1258 1367 1450 1411 1429 1432 1416 1625 1440 856 659 667 468 300 135 0 0 21 181 86 23 250 226 152 101 24 30
1666 1401 912 830 819 826 917 1155 1415 1494 1541 1511 1398 1337 1365 1335 1298 1303 1371 1507 1531 1571 1675 1655 1101 681 528 550 420 172 83 0 52 25 116 151 36 226 272 89 63 23 12
1916 1679 1312 890 777 814 937 1094 1222 1286 1456 1520 1494 1426 1430 1440 1432 1331 1289 1382 1446 1569 1676 1413 704 483 333 122 1 0 0 11 225 11 134 153 82 371 261 144 87 8 3
2046 1724 1395 1062 849 830 947 1078 1174 1170 1291 1457 1553 1506 1445 1445 1460 1332 1247 1299 1419 1667 1676 1351 478 206 89 26 25 35 68 83 214 104 106 22 163 314 241 189 106 148 80
2268 2033 1676 1350 1052 912 911 1011 1126 1145 1211 1431 1574 1529 1459 1452 1427 1310 1186 1221 1377 1554 1531 1119 536 263 163 126 78 48 172 163 85 158 173 68 156 245 221 335 343 175 72
2285 2563 2171 1749 1203 962 927 975 1109 1150 1135 1344 1521 1502 1468 1436 1359 1261 1157 1175 1327 1411 1347 936 516 364 269 199 125 157 153 82 77 65 44 47 70 413 478 383 234 84 10
1732 2456 2337 2117 1610 1137 1010 984 1035 1094 1109 1249 1474 1529 1450 1356 1262 1155 1068 1044 1165 1235 1172 840 468 361 288 202 134 76 47 52 50 120 13 13 111 551 450 275 81 35 16
1235 2069 2402 2350 2172 1686 1629 1279 951 1025 1060 1124 1295 1395 1402 1315 1200 1120 991 1057 1149 1049 959 625 389 310 212 60 7 6 0 18 43 147 5 2 229 542 408 210 65 19 12
0 0 1633 2467 2382 2248 2099 1961 1502 1024 1013 1063 1103 1261 1288 1281 1354 1328 1060 1014 1145 1025 753 482 283 178 102 70 2 0 0 0 166 133 8 44 120 457 382 169 62 37 16
0 0 0 699 2154 2432 2222 2145 2002 1592 1232 1091 1205 1309 1319 1227 1248 1504 1172 1126 1034 905 543 404 205 122 85 94 245 134 1 23 142 45 5 20 116 435 472 108 80 79 29
0 0 0 0 0 115 2037 1868 1833 1983 1759 1545 1399 1537 1680 1380 1408 1572 1373 1160 1059 889 660 346 290 146 84 130 264 330 98 52 103 45 0 4 44 286 338 138 96 113 45
0 0 0 0 0 0 7 1097 1433 1517 1453 1675 1698 1605 1924 1869 1504 1798 1623 1371 1217 1089 839 511 462 462 270 177 386 508 289 147 236 100 18 23 57 102 76 20 47 146 99
0 0 0 0 0 0 0 0 12 984 1421 1182 1714 1877 1895 2166 2065 1644 2021 1641 1385 1139 915 697 710 698 625 392 384 653 435 202 284 191 92 0 34 26 8 6 4 41 146
0 0 0 0 0 0 0 0 0 0 347 924 1241 1955 2132 2098 2287 2161 1722 2111 1536 1221 860 798 807 809 840 760 506 435 312 225 169 257 119 52 0 0 0 0 0 0 102
0 0 0 0 0 0 0 0 0 0 5 765 1018 1289 1415 1949 2161 2257 2360 2079 1997 1549 931 1002 853 934 915 936 818 511 342 248 231 248 193 113 52 0 0 0 0 0 60
0 0 0 0 0 0 0 0 0 0 0 0 591 817 951 1434 1662 2104 2266 2302 1963 1801 1601 1076 996 905 1088 981 908 668 400 364 304 320 279 171 89 60 0 0 0 0 3
0 0 0 0 0 0 0 0 0 0 0 0 0 19 0 730 1471 1807 1975 2255 2170 1852 1639 1421 937 914 915 972 879 732 559 438 376 375 332 221 131 67 67 10 0 0 0
0 0 0 0 0 0 0 0 0 0 0 0 0 0 0 191 1287 1519 1626 1794 1782 2036 1714 1413 1052 855 825 877 870 558 530 385 503 387 297 241 144 98 65 69 1 0 0
0 0 0 0 0 0 0 0 0 0 0 0 0 0 0 0 0 451 1340 1547 1467 1812 1748 1544 1047 781 763 793 811 574 204 228 336 358 296 276 134 83 66 42 27 4 0
0 0 0 0 0 0 0 0 1 1 1 1 0 0 0 0 0 0 807 1239 1586 1527 1281 1003 1077 706 685 490 591 676 324 224 226 255 282 304 224 97 34 30 46 34 2
0 0 0 0 0 1 0 0 1 2 1 1 1 0 0 0 0 0 40 953 1080 1501 1128 1033 824 822 805 630 713 688 464 230 155 116 67 230 182 115 81 24 62 41 25
0 0 0 0 0 0 0 0 1 0 0 1 2 3 3 3 2 1 31 548 850 1172 1024 1194 1011 812 763 590 585 584 481 384 154 4 43 88 142 194 162 120 23 67 101
CIN
-410 -520 -491 -454 -439 -424 -372 -320 -267 -232 -201 -196 -211 -181 -177 -182 -183 -143 -83 -64 -52 -56 -62 -56 -44 -40 -32 -27 -43 -54 -56 -47 -49 -75 -60 -46 -61 -64 -24 -19 -34 -20 -14
-424 -512 -479 -466 -462 -424 -390 -339 -290 -232 -185 -184 -187 -156 -149 -156 -165 -115 -63 -56 -44 -40 -35 -44 -20 -23 -26 -44 -60 -53 -69 -118 -163 -22 -42 -21 -8 -9 -23 -27 -18 -5 -15
-375 -481 -495 -472 -462 -427 -376 -327 -280 -225 -189 -163 -162 -138 -130 -139 -134 -97 -65 -51 -22 -22 -36 -32 -17 -15 -33 -64 -73 -62 -88 -206 -0 -19 -27 -82 -51 -7 -18 -19 -8 -17 -40
-350 -453 -473 -480 -448 -425 -371 -315 -280 -218 -174 -157 -150 -127 -116 -121 -121 -82 -58 -47 -37 -19 -23 -13 -17 -32 -49 -75 -80 -83 -131 -204 -0 -26 -44 -65 -76 -9 -9 -3 -1 -29 -61
-307 -375 -449 -471 -453 -409 -373 -301 -251 -203 -171 -146 -130 -117 -103 -104 -96 -72 -56 -46 -29 -19 -17 -5 -20 -61 -82 -77 -93 -112 -139 -0 -0 -37 -39 -65 -67 -26 -7 -17 -17 -65 -50
-252 -292 -442 -452 -436 -415 -380 -302 -228 -195 -161 -130 -120 -99 -86 -79 -79 -74 -65 -39 -22 -13 -1 -5 -41 -85 -96 -87 -97 -151 -191 -0 -89 -72 -30 -42 -67 -36 -11 -39 -60 -59 -25
-264 -289 -321 -378 -400 -398 -360 -301 -264 -238 -185 -149 -122 -106 -75 -65 -59 -61 -61 -47 -33 -17 -4 -19 -86 -123 -147 -219 -15 -0 -0 -159 -45 -60 -60 -65 -54 -27 -16 -59 -31 -84 -83
-169 -289 -347 -382 -380 -377 -338 -299 -274 -261 -230 -175 -137 -114 -93 -68 -55 -58 -53 -37 -19 -2 -2 -15 -126 -216 -256 -278 -251 -217 -159 -101 -43 -42 -66 -65 -42 -24 -17 -33 -33 -11 -15
-142 -217 -287 -340 -382 -375 -354 -325 -289 -262 -229 -173 -122 -108 -106 -78 -58 -61 -63 -54 -34 -13 -3 -23 -92 -159 -179 -175 -167 -172 -74 -54 -95 -62 -74 -72 -49 -37 -32 -18 -1 -6 -25
-101 -156 -209 -256 -334 -381 -374 -345 -303 -274 -253 -200 -146 -116 -96 -97 -96 -86 -70 -58 -42 -34 -30 -63 -109 -118 -121 -121 -128 -99 -79 -84 -86 -62 -78 -85 -61 -23 -10 -9 -7 -13 -51
-59 -92 -170 -197 -243 -327 -338 -323 -317 -304 -285 -233 -169 -135 -122 -114 -114 -126 -121 -89 -62 -49 -44 -75 -127 -138 -142 -130 -123 -129 -158 -119 -84 -63 -87 -80 -47 -18 -8 -9 -24 -30 -76
-39 -39 -79 -133 -153 -210 -209 -250 -298 -285 -291 -286 -236 -184 -154 -133 -130 -137 -146 -116 -79 -82 -87 -124 -152 -158 -159 -165 -87 -77 -0 -99 -103 -48 -53 -42 -32 -16 -13 -27 -41 -44 -77
-0 -0 -49 -69 -84 -89 -90 -122 -186 -272 -279 -280 -277 -235 -195 -169 -136 -119 -148 -154 -114 -108 -141 -176 -201 -209 -198 -174 -10 -0 -0 -0 -58 -58 -34 -79 -41 -21 -13 -18 -91 -51 -54
-0 -0 -0 -201 -21 -73 -69 -70 -64 -130 -195 -236 -231 -218 -186 -170 -144 -100 -152 -159 -161 -168 -193 -202 -230 -224 -212 -186 -123 -109 -7 -127 -93 -99 -77 -88 -44 -31 -9 -22 -90 -14 -33
-0 -0 -0 -0 -0 -154 -32 -62 -59 -49 -73 -94 -137 -149 -153 -174 -140 -100 -124 -148 -170 -186 -207 -237 -228 -220 -217 -191 -139 -98 -84 -87 -120 -129 -0 -38 -53 -26 -19 -28 -23 -4 -21
-0 -0 -0 -0 -0 -0 -6 -51 -32 -36 -26 -34 -48 -79 -86 -114 -139 -82 -88 -127 -153 -180 -187 -240 -222 -179 -174 -179 -107 -66 -60 -55 -79 -120 -140 -148 -90 -47 -33 -24 -32 -28 -7
-0 -0 -0 -0 -0 -0 -0 -0 -9 -19 -11 -24 -21 -32 -32 -46 -79 -92 -41 -85 -121 -149 -164 -191 -185 -173 -139 -142 -112 -51 -48 -35 -53 -104 -146 -0 -144 -112 -80 -30 -36 -32 -6
-0 -0 -0 -0 -0 -0 -0 -0 -0 -0 -98 -10 -17 -11 -12 -15 -22 -33 -57 -21 -87 -113 -166 -158 -153 -149 -140 -108 -113 -83 -55 -40 -30 -76 -141 -167 -0 -0 -0 -0 -0 -0 -11
-0 -0 -0 -0 -0 -0 -0 -0 -0 -0 -35 -48 -26 -10 -12 -15 -16 -14 -14 -27 -19 -37 -100 -116 -125 -105 -107 -104 -84 -86 -65 -49 -44 -77 -101 -129 -163 -0 -0 -0 -0 -0 -9
-0 -0 -0 -0 -0 -0 -0 -0 -0 -0 -0 -0 -65 -77 -107 -8 -7 -9 -14 -19 -25 -18 -25 -72 -89 -94 -55 -61 -42 -43 -76 -65 -68 -86 -93 -102 -164 -212 -0 -0 -0 -0 -3
-0 -0 -0 -0 -0 -0 -0 -0 -0 -0 -0 -0 -1 -205 -0 -78 -15 -4 -7 -17 -20 -17 -18 -36 -92 -82 -67 -51 -20 -31 -42 -64 -61 -85 -104 -107 -162 -208 -197 -186 -0 -0 -0
-0 -0 -0 -0 -0 -0 -0 -0 -0 -0 -0 -0 -0 -0 -0 -68 -22 -16 -11 -22 -19 -20 -22 -31 -56 -82 -76 -50 -17 -44 -15 -30 -55 -109 -107 -103 -111 -149 -178 -182 -43 -0 -0
-0 -0 -0 -0 -0 -0 -0 -0 -0 -0 -0 -0 -0 -0 -0 -0 -0 -91 -19 -20 -30 -28 -24 -28 -36 -48 -41 -64 -21 -40 -48 -30 -88 -79 -70 -89 -102 -137 -158 -167 -186 -60 -0
-0 -0 -0 -0 -0 -0 -0 -0 -0 -0 -0 -0 -0 -0 -0 -0 -0 -0 -19 -14 -32 -43 -22 -22 -19 -28 -44 -13 -45 -41 -98 -83 -59 -32 -20 -26 -58 -88 -167 -146 -158 -160 -48
-0 -0 -0 -0 -0 -0 -0 -0 -0 -0 -0 -0 -0 -0 -0 -0 -0 -0 -37 -5 -11 -26 -43 -25 -39 -28 -45 -38 -39 -36 -53 -56 -73 -47 -22 -39 -56 -59 -83 -129 -173 -143 -136
-0 -0 -0 -0 -0 -0 -0 -0 -0 -0 -0 -0 -0 -0 -0 -0 -0 -0 -148 -58 -3 -35 -47 -37 -25 -25 -26 -22 -18 -27 -16 -15 -44 -30 -13 -26 -26 -59 -82 -90 -87 -117 -98
Wind_Speed
11 14 16 18 19 19 18 16 15 14 14 14 13 13 14 15 16 16 17 18 19 19 20 20 21 21 21 21 22 22 21 21 21 21 21 20 19 19 18 18 17 17 17
10 13 15 16 16 18 18 17 16 14 14 13 13 13 14 14 15 15 16 17 18 18 19 19 20 21 21 21 21 21 21 21 21 20 21 21 21 20 19 18 17 18 17
11 11 12 14 15 16 17 17 16 15 13 12 12 12 12 13 14 14 15 16 16 17 18 18 19 19 19 19 20 20 20 20 20 21 21 21 21 21 20 19 18 18 17
11 11 11 12 13 14 15 15 16 14 13 11 11 11 11 12 13 13 14 15 15 16 16 17 18 18 18 18 18 18 18 18 19 19 20 19 21 21 20 20 19 19 17
11 10 10 10 11 12 13 14 14 13 12 11 10 10 10 10 11 12 12 13 14 15 15 16 16 17 17 17 17 17 17 17 18 16 16 16 19 21 20 20 18 20 17
10 11 9 9 9 10 11 11 12 12 12 11 10 9 8 9 10 10 10 11 12 13 14 15 15 15 16 16 16 16 17 17 19 18 17 17 18 20 20 20 18 17 16
9 9 9 8 7 7 8 9 10 11 11 10 9 8 8 8 8 9 9 10 11 11 12 13 14 15 15 15 15 15 16 17 18 17 16 16 17 18 19 18 18 17 16
12 10 8 6 5 5 6 7 8 8 9 9 8 8 7 7 7 8 8 9 10 11 11 12 13 13 14 14 14 15 16 16 17 15 16 15 17 17 17 16 16 16 15
11 9 8 7 5 3 3 4 5 6 7 7 7 7 7 7 7 7 7 8 9 10 11 12 12 12 13 14 14 14 15 16 17 17 15 15 16 15 15 15 15 14 14
12 10 8 7 6 4 3 3 3 4 4 4 4 5 5 5 6 6 6 7 7 8 9 10 10 11 13 13 14 14 15 15 16 15 15 15 13 13 13 13 14 12 12
16 11 10 9 7 6 6 6 4 3 1 1 2 2 3 3 3 4 4 4 5 6 7 8 9 10 11 12 13 13 14 15 13 13 13 13 13 13 13 13 13 12 13
23 16 12 10 9 7 9 9 9 8 6 3 2 3 3 2 2 2 2 2 3 4 5 6 7 8 10 11 11 11 12 13 12 11 12 13 13 13 12 12 12 10 11
26 27 27 11 10 10 11 12 12 12 10 9 6 5 5 4 3 2 2 1 1 2 4 4 5 6 7 8 9 9 10 11 10 10 10 11 12 12 12 11 10 8 9
27 31 32 26 14 11 11 13 14 14 14 13 12 9 9 8 6 5 4 2 1 1 1 2 3 3 4 4 6 7 8 9 10 9 9 9 11 12 11 11 9 7 7
28 30 33 31 28 30 14 13 15 15 16 16 15 13 12 11 9 7 7 6 5 3 3 3 3 2 2 1 2 3 4 6 7 8 7 7 8 9 10 9 9 8 5
30 31 33 34 33 33 30 28 21 21 20 20 18 17 16 15 13 11 10 9 8 6 5 4 4 4 3 2 2 1 1 5 5 6 6 6 7 7 8 8 9 10 8
32 33 35 36 36 35 33 33 34 32 24 23 23 22 20 18 17 15 14 13 10 9 8 6 6 5 5 4 3 2 1 1 2 3 4 5 4 5 6 7 10 10 11
36 37 38 38 39 39 37 36 35 36 34 31 27 27 26 23 21 19 18 17 14 13 12 10 9 9 9 8 8 7 5 4 3 1 1 2 2 3 3 6 6 8 9
37 40 41 41 40 41 40 38 37 37 37 32 32 31 31 34 29 25 22 22 19 18 17 15 13 12 12 11 11 11 10 9 6 4 3 2 2 1 1 5 6 6 6
38 39 39 40 41 43 40 41 39 37 37 37 34 34 37 38 39 31 28 28 27 28 24 21 19 18 16 14 14 14 13 11 10 7 6 5 4 3 2 2 4 6 7
38 39 40 42 43 43 42 44 43 42 41 38 38 39 47 53 35 38 33 32 31 31 31 27 23 23 21 18 17 16 19 18 16 13 9 9 8 6 5 4 4 5 6
37 40 42 42 43 43 43 43 42 43 37 39 37 39 38 45 42 38 38 38 34 31 32 32 28 26 26 26 22 19 19 19 20 18 15 13 12 10 8 8 7 7 7
39 41 43 44 44 44 45 44 44 41 40 39 43 44 43 44 50 51 40 40 38 35 37 37 34 30 29 25 27 23 23 23 24 23 20 17 15 14 11 11 11 10 10
42 43 43 44 45 44 46 46 47 46 47 45 44 45 49 48 49 48 49 41 41 40 42 41 40 34 34 35 31 31 29 24 25 28 26 23 19 18 16 17 15 14 12
42 44 44 45 45 45 45 45 45 46 46 45 44 47 48 50 49 51 49 48 43 41 41 42 39 38 38 40 37 35 33 29 25 26 30 28 25 20 20 16 16 15 14
41 43 45 46 47 47 46 46 46 46 48 48 48 50 50 51 52 53 51 50 48 45 45 42 43 41 40 39 38 33 30 28 30 26 23 31 26 26 24 22 18 18 17
Wind_Direction
57 86 96 88 79 71 64 58 54 50 50 50 44 38 36 36 34 38 45 49 52 55 55 58 58 58 58 57 56 55 55 57 56 54 44 36 28 26 22 18 17 15 24
78 90 96 87 75 74 69 62 59 52 51 50 48 45 41 40 39 41 43 46 50 52 54 53 53 54 56 58 57 56 61 63 61 50 44 46 37 35 30 31 23 23 21
72 83 88 83 78 70 71 65 57 58 54 54 46 40 40 39 39 43 42 44 48 50 49 51 51 54 57 56 57 61 67 64 57 58 52 53 39 41 36 35 29 30 29
64 80 80 77 72 70 63 63 60 53 52 53 56 49 39 39 43 46 45 43 45 47 49 52 50 53 56 56 60 64 67 56 55 61 54 58 56 54 47 45 44 44 36
63 67 82 72 71 68 61 64 60 55 52 51 50 49 46 41 39 43 45 41 41 41 44 49 49 52 54 56 60 60 58 58 51 62 51 51 54 57 58 59 54 56 51
65 58 81 71 70 68 53 49 59 60 54 49 50 46 38 39 45 49 44 39 36 36 38 42 46 49 51 55 56 54 56 55 48 58 56 73 59 64 66 64 65 59 50
26 47 67 72 73 62 51 50 51 57 63 57 52 48 43 35 33 37 35 32 29 29 34 35 38 44 48 50 49 49 52 48 45 66 67 60 68 70 69 65 68 63 64
15 11 21 33 48 47 45 42 43 53 59 68 72 70 54 38 30 30 25 21 18 18 22 24 31 39 42 43 43 43 43 44 50 62 76 57 72 76 67 62 67 65 63
10 7 3 1 360 17 34 35 34 42 46 58 69 74 68 57 49 44 33 22 21 23 23 20 25 31 36 38 39 38 40 41 46 70 76 75 67 66 60 68 67 62 55
358 357 355 342 338 314 322 344 10 25 33 43 58 62 61 58 50 44 39 26 21 24 28 29 33 33 33 35 35 33 36 42 58 66 74 84 71 63 66 71 76 67 58
333 338 334 335 331 301 294 300 304 313 350 14 9 19 27 23 29 41 49 41 34 29 28 28 34 36 38 38 37 34 35 40 59 64 76 84 77 72 80 80 85 82 80
320 322 323 319 320 308 289 286 287 293 294 283 277 289 307 325 334 357 36 52 50 39 28 25 29 34 40 38 41 42 43 41 57 61 71 79 81 72 83 86 93 86 80
351 335 304 313 313 315 303 287 285 280 280 280 264 263 263 274 280 293 303 344 19 23 13 18 27 37 48 43 47 48 50 41 51 65 67 82 80 73 85 89 94 81 87
337 340 337 315 316 310 308 303 285 281 276 273 273 265 270 274 268 268 271 252 248 294 346 342 356 26 42 55 45 48 49 47 59 56 72 79 80 76 85 93 97 90 91
339 340 343 341 331 318 303 304 299 280 278 278 270 265 263 263 264 260 263 265 264 253 257 278 295 309 318 32 88 52 60 51 59 57 65 72 83 82 83 91 103 111 88
338 336 337 337 334 329 317 305 302 294 281 278 272 269 262 263 259 258 262 254 258 255 253 245 251 273 283 279 270 360 80 23 64 62 58 61 69 91 90 99 115 124 124
339 334 331 329 330 327 320 314 308 298 292 282 278 270 267 263 258 253 261 258 254 256 252 252 232 248 256 249 251 276 250 325 37 63 63 55 58 85 109 104 128 134 139
334 327 326 325 323 321 319 312 312 305 298 290 280 277 271 267 266 260 255 260 261 253 253 245 246 250 252 250 256 263 281 273 310 313 70 56 43 28 118 137 134 142 149
332 327 322 320 320 318 317 314 311 309 305 294 284 280 277 274 266 262 261 262 263 263 256 259 254 252 258 259 255 252 262 273 267 268 254 263 180 294 330 169 165 165 169
339 336 329 325 321 318 316 315 311 310 306 302 290 282 276 277 271 264 264 266 266 265 267 261 259 259 259 257 267 267 265 264 265 251 245 262 247 235 264 226 184 188 185
343 340 338 331 326 322 319 313 310 306 304 303 300 290 272 260 272 269 263 261 262 263 263 263 262 255 258 260 272 278 278 276 270 265 246 261 270 242 251 258 258 231 215
344 341 338 335 331 327 322 316 312 308 306 302 302 295 289 281 277 268 265 263 258 259 262 261 259 262 262 266 259 272 274 283 278 267 263 257 261 264 249 261 264 260 232
341 339 337 334 332 329 325 320 315 312 308 302 298 293 291 288 280 277 266 262 262 261 261 262 262 259 262 260 247 272 284 277 281 282 264 260 255 263 258 256 262 261 247
336 336 335 334 332 330 329 323 317 312 305 303 300 294 289 287 284 282 275 265 263 265 266 267 267 262 266 271 270 268 278 287 285 283 276 267 261 257 262 268 262 259 250
336 336 335 334 333 332 331 329 324 317 312 308 304 299 292 287 284 282 282 273 267 267 268 269 268 273 270 270 268 269 270 277 286 286 281 272 272 265 264 255 255 253 249
340 338 337 335 331 330 330 328 326 320 316 309 305 299 294 289 283 281 281 279 270 268 269 268 270 271 271 272 271 270 269 265 269 276 281 277 279 280 272 262 259 253 253